TimeCDT,TemperatureF,Dew PointF,Humidity,Sea Level PressureIn,VisibilityMPH,Wind Direction,Wind SpeedMPH,Gust SpeedMPH,PrecipitationIn,Events,Conditions,WindDirDegrees,DateUTC
12:14 AM,69.8,68.0,94,29.90,10.0,Calm,Calm,-,N/A,,Clear,0,2013-09-07 05:14:00
12:33 AM,69.8,66.2,88,29.91,10.0,Calm,Calm,-,N/A,,Clear,0,2013-09-07 05:33:00
12:53 AM,69.8,66.2,88,29.91,10.0,NNW,4.6,-,N/A,,Clear,330,2013-09-07 05:53:00
1:14 AM,71.6,68.0,88,29.91,10.0,NNW,4.6,-,N/A,,Clear,330,2013-09-07 06:14:00
1:33 AM,71.6,66.2,83,29.91,10.0,NNW,5.8,-,N/A,,Clear,340,2013-09-07 06:33:00
1:53 AM,71.6,66.2,83,29.91,10.0,NNW,4.6,-,N/A,,Clear,340,2013-09-07 06:53:00
2:13 AM,71.6,66.2,83,29.91,10.0,North,5.8,-,N/A,,Clear,350,2013-09-07 07:13:00
2:33 AM,69.8,66.2,88,29.91,10.0,North,4.6,-,N/A,,Clear,360,2013-09-07 07:33:00
2:54 AM,69.8,66.2,88,29.91,10.0,North,6.9,-,N/A,,Clear,360,2013-09-07 07:54:00
3:13 AM,69.8,66.2,88,29.91,10.0,North,5.8,-,N/A,,Clear,350,2013-09-07 08:13:00
3:33 AM,69.8,66.2,88,29.91,10.0,North,5.8,-,N/A,,Clear,350,2013-09-07 08:33:00
3:53 AM,69.8,66.2,88,29.91,10.0,North,5.8,-,N/A,,Clear,360,2013-09-07 08:53:00
4:13 AM,69.8,66.2,88,29.91,10.0,North,4.6,-,N/A,,Clear,360,2013-09-07 09:13:00
4:34 AM,69.8,66.2,88,29.91,10.0,NNE,5.8,-,N/A,,Clear,20,2013-09-07 09:34:00
4:53 AM,69.8,66.2,88,29.91,10.0,NNE,3.5,-,N/A,,Clear,30,2013-09-07 09:53:00
5:13 AM,69.8,66.2,88,29.92,10.0,Calm,Calm,-,N/A,,Clear,0,2013-09-07 10:13:00
5:33 AM,66.2,64.4,94,29.93,10.0,NNW,5.8,-,N/A,,Clear,340,2013-09-07 10:33:00
5:53 AM,68.0,66.2,94,29.93,10.0,North,5.8,-,N/A,,Clear,360,2013-09-07 10:53:00
6:14 AM,68.0,66.2,94,29.94,10.0,North,6.9,-,N/A,,Clear,350,2013-09-07 11:14:00
6:33 AM,68.0,66.2,94,29.94,10.0,North,6.9,-,N/A,,Clear,360,2013-09-07 11:33:00
6:53 AM,68.0,66.2,94,29.95,10.0,North,5.8,-,N/A,,Clear,360,2013-09-07 11:53:00
7:13 AM,68.0,66.2,94,29.95,10.0,North,6.9,-,N/A,,Clear,10,2013-09-07 12:13:00
7:33 AM,69.8,66.2,88,29.96,10.0,North,5.8,-,N/A,,Clear,360,2013-09-07 12:33:00
7:54 AM,69.8,66.2,88,29.96,10.0,North,4.6,-,N/A,,Clear,360,2013-09-07 12:54:00
8:13 AM,71.6,68.0,88,29.96,10.0,North,3.5,-,N/A,,Clear,360,2013-09-07 13:13:00
8:33 AM,73.4,69.8,88,29.96,10.0,North,3.5,-,N/A,,Clear,10,2013-09-07 13:33:00
8:53 AM,75.2,69.8,83,29.97,10.0,North,5.8,-,N/A,,Clear,360,2013-09-07 13:53:00
9:13 AM,77.0,69.8,78,29.97,10.0,North,5.8,-,N/A,,Clear,10,2013-09-07 14:13:00
9:34 AM,78.8,69.8,74,29.97,10.0,NNE,8.1,-,N/A,,Clear,20,2013-09-07 14:34:00
9:53 AM,80.6,69.8,70,29.97,10.0,NNE,9.2,-,N/A,,Clear,20,2013-09-07 14:53:00
10:13 AM,80.6,69.8,70,29.99,10.0,North,9.2,-,N/A,,Clear,10,2013-09-07 15:13:00
10:34 AM,82.4,69.8,66,29.99,10.0,NNE,11.5,-,N/A,,Clear,20,2013-09-07 15:34:00
10:53 AM,84.2,69.8,62,29.99,10.0,NNE,10.4,-,N/A,,Clear,30,2013-09-07 15:53:00
11:14 AM,84.2,68.0,58,29.99,10.0,NE,9.2,-,N/A,,Clear,40,2013-09-07 16:14:00
11:33 AM,86.0,69.8,58,29.99,10.0,NNE,11.5,-,N/A,,Clear,20,2013-09-07 16:33:00
11:53 AM,87.8,69.8,55,29.99,10.0,NNE,10.4,-,N/A,,Clear,20,2013-09-07 16:53:00
12:13 PM,87.8,68.0,52,29.99,10.0,NNE,8.1,-,N/A,,Clear,30,2013-09-07 17:13:00
12:33 PM,87.8,68.0,52,29.99,10.0,NE,10.4,-,N/A,,Clear,40,2013-09-07 17:33:00
12:53 PM,89.6,66.2,46,29.99,10.0,NNE,8.1,-,N/A,,Clear,30,2013-09-07 17:53:00
1:13 PM,89.6,66.2,46,29.98,10.0,North,12.7,-,N/A,,Clear,10,2013-09-07 18:13:00
1:33 PM,89.6,66.2,46,29.99,10.0,NNE,9.2,-,N/A,,Clear,30,2013-09-07 18:33:00
1:53 PM,89.6,66.2,46,29.99,10.0,North,11.5,17.3,N/A,,Clear,360,2013-09-07 18:53:00
2:13 PM,87.8,66.2,49,29.99,10.0,NNE,11.5,-,N/A,,Clear,30,2013-09-07 19:13:00
2:33 PM,87.8,66.2,49,29.99,10.0,NNE,9.2,-,N/A,,Clear,20,2013-09-07 19:33:00
2:53 PM,89.6,66.2,46,29.98,10.0,North,9.2,-,N/A,,Clear,10,2013-09-07 19:53:00
3:13 PM,89.6,66.2,46,29.98,10.0,North,9.2,-,N/A,,Clear,360,2013-09-07 20:13:00
3:33 PM,89.6,66.2,46,29.98,10.0,NNE,4.6,-,N/A,,Clear,20,2013-09-07 20:33:00
3:53 PM,91.4,66.2,43,29.98,10.0,NE,8.1,-,N/A,,Scattered Clouds,40,2013-09-07 20:53:00
4:13 PM,91.4,66.2,43,29.98,10.0,North,8.1,-,N/A,,Scattered Clouds,10,2013-09-07 21:13:00
4:33 PM,87.8,66.2,49,29.98,10.0,NNE,10.4,-,N/A,,Clear,30,2013-09-07 21:33:00
4:53 PM,86.0,66.2,51,29.99,10.0,NE,11.5,-,N/A,,Clear,50,2013-09-07 21:53:00
5:13 PM,89.6,69.8,52,29.99,10.0,NNE,20.7,25.3,N/A,,Clear,20,2013-09-07 22:13:00
5:33 PM,80.6,69.8,70,30.00,10.0,North,13.8,20.7,N/A,Thunderstorm,Clear,360,2013-09-07 22:33:00
5:53 PM,75.2,71.6,89,30.00,7.0,North,6.9,-,N/A,Rain,Light Rain,360,2013-09-07 22:53:00
6:13 PM,78.8,69.8,74,30.01,10.0,North,6.9,-,N/A,,Clear,360,2013-09-07 23:13:00
6:33 PM,80.6,69.8,70,30.01,10.0,NNE,8.1,-,N/A,,Clear,20,2013-09-07 23:33:00
6:53 PM,78.8,69.8,74,30.00,10.0,NNE,6.9,-,N/A,,Clear,30,2013-09-07 23:53:00
7:13 PM,77.0,71.6,83,30.01,10.0,NNE,8.1,-,N/A,,Clear,20,2013-09-08 00:13:00
7:33 PM,77.0,69.8,78,30.01,10.0,NNE,8.1,-,N/A,,Clear,20,2013-09-08 00:33:00
7:53 PM,75.2,69.8,83,30.01,10.0,NNE,6.9,-,N/A,,Clear,20,2013-09-08 00:53:00
8:13 PM,75.2,69.8,83,30.02,10.0,NNE,6.9,-,N/A,,Clear,30,2013-09-08 01:13:00
8:33 PM,75.2,69.8,83,30.02,10.0,NNE,8.1,-,N/A,,Clear,30,2013-09-08 01:33:00
8:53 PM,73.4,69.8,88,30.02,10.0,NNE,8.1,-,N/A,,Clear,30,2013-09-08 01:53:00
9:13 PM,73.4,69.8,88,30.03,10.0,NE,8.1,-,N/A,,Clear,40,2013-09-08 02:13:00
9:33 PM,73.4,68.0,83,30.02,10.0,NE,9.2,-,N/A,,Clear,40,2013-09-08 02:33:00
9:53 PM,73.4,66.2,78,30.03,10.0,NE,9.2,-,N/A,,Clear,40,2013-09-08 02:53:00
10:14 PM,71.6,66.2,83,30.03,10.0,NE,9.2,-,N/A,,Clear,40,2013-09-08 03:14:00
10:33 PM,71.6,66.2,83,30.04,10.0,NE,9.2,-,N/A,,Scattered Clouds,40,2013-09-08 03:33:00
10:53 PM,71.6,66.2,83,30.04,10.0,NE,9.2,-,N/A,,Scattered Clouds,50,2013-09-08 03:53:00
11:13 PM,71.6,66.2,83,30.04,10.0,ENE,10.4,-,N/A,,Clear,60,2013-09-08 04:13:00
11:33 PM,71.6,66.2,83,30.05,10.0,ENE,10.4,-,N/A,,Clear,60,2013-09-08 04:33:00
11:53 PM,71.6,66.2,83,30.06,10.0,East,12.7,17.3,N/A,,Clear,80,2013-09-08 04:53:00